Cloud_Cover
0 0 0 0 0 27 100 100 99 100 100 100 100 100 100 100 100 100 100 100 100 100 100 100 100 100 100 100 100 100 100 100 100 100 92 100 100 78 38 76 28 30 55
0 2 0 0 1 46 100 100 98 85 87 100 100 100 100 100 100 100 100 100 100 100 100 100 100 100 100 100 100 100 100 100 100 100 100 100 77 6 41 40 100 100 100
1 5 5 0 36 74 100 100 94 100 94 100 100 100 100 100 100 100 100 100 100 100 100 100 100 100 100 100 100 100 100 100 100 99 58 100 86 68 91 99 100 100 100
5 5 5 0 26 51 100 100 100 100 98 91 100 100 100 100 100 100 100 100 100 100 100 100 100 100 100 100 100 100 100 94 100 97 100 100 100 100 100 100 100 100 100
7 5 2 0 2 37 100 90 96 96 100 100 100 100 100 100 100 100 100 100 100 100 100 100 100 100 100 100 100 100 98 100 100 100 100 100 100 100 100 100 100 100 100
77 5 2 0 0 33 30 100 95 100 100 99 100 100 100 100 100 100 100 100 100 100 100 100 100 100 87 93 100 100 100 100 100 100 100 100 100 100 100 100 100 100 100
90 28 6 1 0 7 2 100 99 100 100 100 100 100 100 100 100 100 100 100 100 100 100 100 100 100 100 100 100 100 100 100 100 100 100 100 100 100 100 100 100 100 100
32 11 36 0 3 12 0 100 100 100 98 100 100 100 100 100 100 100 100 100 100 100 100 100 100 100 100 100 100 100 100 100 100 100 100 100 100 100 100 100 100 100 100
5 78 93 75 5 34 0 1 100 100 100 91 100 100 100 100 100 100 100 100 100 100 100 100 100 100 100 100 100 100 100 100 100 100 100 100 100 100 100 99 97 99 100
1 46 27 100 97 100 3 0 6 78 98 100 96 95 100 100 100 100 100 100 100 100 100 100 100 100 100 100 100 100 100 99 100 100 100 100 100 100 100 92 100 92 100
5 1 5 33 100 100 87 0 0 4 47 100 100 79 94 100 100 100 100 100 100 100 100 100 100 100 100 100 100 100 100 100 100 100 100 100 100 100 94 69 95 100 100
9 5 5 96 100 100 100 54 0 0 1 15 51 100 83 100 100 27 38 100 98 100 100 100 100 100 100 100 100 100 100 100 100 100 100 100 70 98 84 100 100 100 100
3 9 5 31 32 98 100 100 41 0 0 0 2 10 75 100 42 88 99 100 58 45 62 100 100 100 100 100 100 100 100 100 100 100 100 94 86 100 100 100 100 100 100
64 100 6 6 68 12 100 100 100 85 2 0 0 0 0 4 8 36 82 88 83 74 72 95 100 100 100 100 99 78 54 43 86 59 90 97 100 100 100 100 100 100 100
88 50 5 2 88 65 89 100 100 100 65 5 2 0 0 0 7 25 96 100 100 100 63 82 10 37 62 20 19 21 35 18 5 31 91 100 100 100 100 100 100 100 100
37 78 77 87 5 20 100 100 100 100 100 85 5 5 0 0 0 0 0 0 21 43 11 21 6 64 32 7 78 27 45 90 100 100 100 100 100 100 99 100 100 100 100
45 69 95 79 79 11 40 100 100 100 100 100 100 17 5 5 0 0 0 3 21 14 0 5 14 41 43 100 100 100 100 100 100 100 100 100 100 100 100 100 100 100 100
22 32 94 68 100 100 57 10 100 100 100 100 100 100 100 54 4 1 0 0 0 2 38 62 59 59 97 100 100 100 100 100 100 100 100 100 100 100 100 100 100 100 100
100 100 62 41 100 93 100 93 60 100 100 100 100 100 100 100 100 42 6 20 41 68 100 100 100 100 100 100 100 100 100 100 100 100 100 100 100 100 100 100 100 100 100
99 97 98 100 98 100 100 100 99 100 86 100 100 100 100 100 100 100 100 100 81 99 100 100 100 100 100 100 100 100 100 100 100 100 100 100 100 100 100 100 100 100 100
27 5 5 40 5 21 100 97 100 99 99 71 100 100 100 100 100 100 100 100 100 100 100 100 100 100 100 100 100 100 100 100 100 100 100 100 100 100 100 100 100 100 100
5 5 3 34 22 8 86 100 100 74 87 100 100 100 100 100 100 100 100 100 100 100 100 100 100 100 100 100 100 100 100 100 100 100 100 100 100 100 100 100 100 100 100
50 75 68 98 97 63 43 97 100 100 100 100 100 100 100 100 100 100 100 100 100 100 100 100 100 100 100 100 100 100 100 100 100 100 100 100 100 100 100 100 100 100 100
100 100 100 100 100 100 100 100 100 100 100 100 100 100 100 100 100 100 100 100 100 100 100 100 100 100 100 100 100 100 100 100 100 100 100 100 100 100 100 100 100 100 100
100 100 100 100 100 100 100 100 100 100 100 100 100 100 100 100 100 100 100 100 100 100 100 100 100 100 100 100 100 100 100 100 100 100 100 100 100 100 100 100 100 100 100
100 100 100 100 100 100 100 100 100 100 100 100 100 100 100 100 100 100 100 100 100 100 100 100 100 100 100 100 100 100 100 100 100 100 99 100 100 100 100 100 100 100 100